Tulsa, OK

11:16 PM CDT on July 25, 2017 (GMT -0500)
Tulsa International

Weather History for KTUL - December, 2012

Change the Weather History Date:

Friday, December 28, 2012

  Actual Average Record
Temperature  
Mean Temperature 29 °F 38 °F  
Max Temperature 35 °F 47 °F 74 °F (1928)
Min Temperature 22 °F 28 °F 0 °F (1924)
Degree Days  
Heating Degree Days 36 27  
Month to date heating degree days 561 709  
Since 1 July heating degree days 1155 1345  
Moisture  
Dew Point 25 °F    
Average Humidity 75    
Maximum Humidity 92    
Minimum Humidity 57    
Precipitation  
Precipitation 0.02 in 0.07 in 0.98 in (1927)
Month to date precipitation 0.16 2.30  
Year to date precipitation 28.05 40.78  
Sea Level Pressure  
Sea Level Pressure 30.04 in    
Wind  
Wind Speed 6 mph (NW)    
Max Wind Speed 14 mph    
Max Gust Speed 16 mph    
Visibility 6 miles    
Events Snow    
T = Trace of Precipitation, MM = Missing Value Source: NWS Daily Summary

Daily Weather History Graph

Daily Weather History Graph

Search for Another Location

Airport or City:

Trip Planner

Search our weather history database for the weather conditions in past years. The results will help you decide how hot, cold, wet, or windy it might be!

Date:

Astronomy

Dec. 28, 2012 Rise Set
Actual Time 7:33 AM CST 5:17 PM CST
Civil Twilight 7:05 AM CST 5:45 PM CST
Nautical Twilight 6:33 AM CST 6:17 PM CST
Astronomical Twilight 6:01 AM CST 6:49 PM CST
Moon 5:52 PM CST (12/28) 7:30 AM CST (12/28)
Length of Visible Light 10h 40m
Length of Day
9h 43m
Full, 100% of the Moon is Illuminated
Dec 28
Full
Jan 4
Last Quarter
Jan 11
New
Jan 18
First Quarter
Jan 26
Full

Hourly Weather History & Observations

Time (CST) Temp. Windchill Dew Point Humidity Pressure Visibility Wind Dir Wind Speed Gust Speed Precip Events Conditions
12:53 AM 28.0 °F - 25.0 °F 88% 30.01 in 6.0 mi Calm Calm - N/A   Scattered Clouds
1:53 AM 28.0 °F - 25.0 °F 88% 30.01 in 6.0 mi Calm Calm - N/A   Clear
2:53 AM 26.1 °F - 24.1 °F 92% 30.02 in 6.0 mi Calm Calm - N/A   Clear
3:53 AM 28.0 °F 24.2 °F 26.1 °F 92% 30.01 in 5.0 mi NNW 3.5 mph - N/A   Partly Cloudy
5:53 AM 28.9 °F - 27.0 °F 92% 29.99 in 5.0 mi Calm Calm - N/A   Overcast
6:53 AM 30.0 °F 24.1 °F 27.0 °F 88% 30.00 in 5.0 mi NNW 5.8 mph - N/A   Overcast
7:53 AM 28.9 °F 23.9 °F 27.0 °F 92% 30.00 in 4.0 mi WNW 4.6 mph - N/A   Overcast
8:53 AM 30.0 °F 25.2 °F 27.0 °F 88% 30.01 in 4.0 mi NW 4.6 mph - N/A   Overcast
9:53 AM 32.0 °F 25.6 °F 28.4 °F 87% 30.01 in 6.0 mi NNW 6.9 mph - N/A   Overcast
10:53 AM 34.0 °F 27.2 °F 27.0 °F 75% 30.04 in 7.0 mi NNW 8.1 mph - N/A   Overcast
11:31 AM 33.8 °F 24.8 °F 26.6 °F 75% 30.03 in 3.0 mi NNW 12.7 mph - 0.00 in Snow Light Snow
11:33 AM 33.8 °F 25.3 °F 26.6 °F 75% 30.03 in 1.5 mi NNW 11.5 mph - N/A Snow Light Snow
11:53 AM 33.1 °F 24.9 °F 30.0 °F 89% 30.04 in 1.2 mi NW 10.4 mph - 0.00 in Snow Light Snow
12:06 PM 32.0 °F 24.8 °F 30.2 °F 93% 30.02 in 1.0 mi WNW 8.1 mph - 0.00 in Snow Light Snow
12:53 PM 32.0 °F 25.6 °F 30.0 °F 92% 30.01 in 1.0 mi NW 6.9 mph - 0.01 in Snow Light Snow
1:26 PM 33.8 °F 26.4 °F 30.2 °F 87% 29.99 in 1.5 mi WNW 9.2 mph - 0.01 in Snow Light Snow
1:35 PM 33.8 °F 27.0 °F 30.2 °F 87% 29.99 in 1.5 mi NW 8.1 mph - 0.01 in Snow Light Snow
1:44 PM 33.8 °F 26.4 °F 30.2 °F 87% 29.99 in 0.8 mi WNW 9.2 mph - 0.01 in Snow Light Snow
1:53 PM 32.0 °F 24.2 °F 30.0 °F 92% 30.01 in 1.0 mi WNW 9.2 mph - 0.01 in Snow Light Snow
2:05 PM 32.0 °F 23.6 °F 30.2 °F 93% 29.99 in 2.0 mi WNW 10.4 mph - 0.00 in Snow Light Snow
2:08 PM 32.0 °F 24.2 °F 30.2 °F 93% 29.99 in 3.0 mi NW 9.2 mph - 0.00 in Snow Light Snow
2:45 PM 33.8 °F 27.7 °F 30.2 °F 87% 29.99 in 7.0 mi WNW 6.9 mph - 0.00 in   Overcast
2:53 PM 34.0 °F 29.8 °F 28.9 °F 82% 30.00 in 7.0 mi NW 4.6 mph - 0.00 in   Overcast
3:53 PM 34.0 °F 26.6 °F 26.1 °F 73% 30.01 in 9.0 mi NW 9.2 mph - N/A   Overcast
4:53 PM 34.0 °F 25.5 °F 25.0 °F 70% 30.03 in 9.0 mi NNW 11.5 mph - N/A   Mostly Cloudy
5:53 PM 30.0 °F 23.2 °F 21.9 °F 72% 30.06 in 10.0 mi NW 6.9 mph - N/A   Partly Cloudy
6:53 PM 28.4 °F 20.4 °F 19.4 °F 69% 30.07 in 10.0 mi NW 8.1 mph - N/A   Clear
7:53 PM 26.1 °F 17.6 °F 17.1 °F 69% 30.10 in 10.0 mi NW 8.1 mph - N/A   Clear
8:53 PM 26.1 °F 16.8 °F 14.0 °F 60% 30.13 in 10.0 mi NW 9.2 mph - N/A   Clear
9:53 PM 24.1 °F 16.0 °F 12.9 °F 62% 30.16 in 10.0 mi NW 6.9 mph - N/A   Clear
10:53 PM 23.0 °F 14.7 °F 12.9 °F 65% 30.18 in 10.0 mi NW 6.9 mph - N/A   Clear
11:53 PM 21.9 °F 12.5 °F 12.0 °F 66% 30.20 in 10.0 mi WNW 8.1 mph - N/A   Clear